www.pogodaiklimat.ru

Погода и климат >> Архив погоды >> Австралия >> Южная Австралия >> Локстон


ПОГОДА в Локстоне

  • Прогноз погоды в Локстоне
  • Монитор погоды в Локстоне

АРХИВ ПОГОДЫ в Локстоне

Время (UTC), дата Ветер
(напр.,м/с)
 
Видим.   Явления Облачность Т
(С)
Тd
(С)
f
(%)
Тe
(С)
Тes
(С)
Комфортность P
(гПа)
Po
(гПа)
Тmin
(С)
Tmax
(С)
R
(мм)
R24
(мм)
S
(см)
07 12.04 З 2 н/о н/о +24.4 -3.8 15 +22 +22 комфорт 1021.2 1017.6
08 12.04 штиль 0 н/о н/о +21.2 +3.9 32 +21 +21 комфорт 1021.5 1017.9
10 12.04 штиль 0 н/о н/о +10.9 +4.9 66 +10 +10 1022.5 1018.9
11 12.04 штиль 0 н/о н/о +9.0 +3.1 67 +8 +8 1023.1 1019.5
13 12.04 штиль 0 н/о н/о +6.7 +2.3 73 +6 +6 1023.5 1019.9
14 12.04 ЮЗ 1 н/о н/о +6.3 +2.1 74 +7 +7 1023.4 1019.8 +25.1
16 12.04 Ю 2 н/о н/о +6.5 +0.9 67 +5 +5 1023.6 1020.0
17 12.04 штиль 0 н/о н/о +4.8 +0.9 76 +4 +4 1023.1 1019.5
19 12.04 штиль 0 н/о н/о +4.2 +0.2 75 +3 +3 1022.7 1019.1
20 12.04 штиль 0 н/о н/о +4.1 +1.0 80 +3 +3 1023.4 1019.8
22 12.04 штиль 0 н/о н/о +7.4 +3.1 74 +7 +7 1024.7 1021.0
23 12.04 штиль 0 30 км 9/0
[Ac As]
+12.5 -1.3 38 +12 +12 1025.6 1021.9
01 13.04 В 2 н/о н/о +18.7 +0.1 29 +20 +20 1025.2 1021.5
02 13.04 штиль 0 н/о н/о +21.3 +0.7 25 +21 +21 комфорт 1024.9 1021.2 +3.9
04 13.04 Ю 3 н/о н/о +22.8 -3.1 18 +21 +21 комфорт 1023.3 1019.7
05 13.04 ЮВ 4 н/о н/о +22.9 -3.4 17 +21 +21 комфорт 1023.1 1019.5
07 13.04 ЮВ 3 н/о н/о +22.4 +1.0 24 +22 +22 комфорт 1022.7 1019.1
08 13.04 штиль 0 н/о н/о +20.4 +7.2 42 +21 +21 комфорт 1023.2 1019.6
10 13.04 ЮВ 2 н/о н/о +16.5 +9.3 62 +17 +17 1023.3 1019.7
11 13.04 Ю 2 н/о н/о +16.6 +9.2 62 +17 +17 1023.4 1019.8
13 13.04 Ю 2 н/о н/о +16.7 +9.6 63 +17 +17 1023.3 1019.7
14 13.04 штиль 0 н/о н/о +16.0 +11.3 74 +16 +16 1023.0 1019.4 +23.3
16 13.04 ЮЗ 3 н/о н/о +16.9 +11.3 70 +17 +17 1022.8 1019.2
17 13.04 Ю 3 н/о н/о +17.0 +11.7 71 +17 +17 1022.1 1018.5
19 13.04 Ю 3 н/о н/о +16.3 +11.7 74 +16 +16 1022.3 1018.7
20 13.04 Ю 3 н/о н/о +16.0 +11.5 75 +16 +16 1022.6 1019.0
22 13.04 ЮВ 5 н/о н/о +16.5 +11.9 74 +16 +16 1022.1 1018.5
23 13.04 В 3 30 км 9/0
[Ac inh]
+18.5 +10.9 61 +19 +19 1023.1 1019.5
01 14.04 С 2 н/о н/о +22.4 +3.1 28 +22 +22 комфорт 1022.7 1019.1
02 14.04 В 2 н/о н/о +23.8 +4.0 28 +23 +23 комфорт 1021.9 1018.3 +15.8
04 14.04 СВ 2 н/о н/о +25.7 +3.9 24 +25 +25 комфорт 1020.0 1016.4
05 14.04 Ю 2 н/о н/о +25.9 +4.3 25 +25 +25 комфорт 1019.5 1015.9
07 14.04 В 3 н/о н/о +26.3 +4.4 24 +25 +25 комфорт 1018.4 1014.8
08 14.04 В 2 н/о н/о +23.8 +8.4 37 +24 +24 комфорт 1018.5 1014.9
10 14.04 ЮВ 2 н/о н/о +15.9 +8.2 60 +16 +16 1019.6 1016.0
11 14.04 ЮВ 3 н/о н/о +15.2 +7.3 59 +15 +15 1019.8 1016.2
13 14.04 ЮВ 2 н/о н/о +12.7 +6.9 68 +12 +12 1020.6 1017.0
14 14.04 В 2 н/о н/о +11.3 +6.4 72 +10 +10 1019.5 1015.9 +27.1
16 14.04 В 2 н/о н/о +10.2 +6.1 76 +9 +9 1019.0 1015.4
17 14.04 В 2 н/о н/о +9.4 +6.6 83 +8 +8 1018.6 1015.0
19 14.04 В 1 н/о н/о +7.9 +5.4 84 +7 +7 1019.1 1015.5
20 14.04 В 3 н/о н/о +7.3 +5.0 85 +5 +5 1019.4 1015.8
22 14.04 В 2 н/о н/о +12.2 +6.3 67 +11 +11 1019.7 1016.1
23 14.04 СВ 4 30 км н/о +18.2 +4.6 41 +18 +18 1020.2 1016.6
01 15.04 СВ 5 н/о н/о +23.8 +1.7 23 +23 +23 комфорт 1019.1 1015.5
02 15.04 С 5 н/о +25.9 -1.3 17 +24 +24 комфорт 1018.6 1015.0
05 15.04 0 н/о н/о +27.5 -1.8 15 1016.5 1012.9
07 15.04 СВ 3 н/о н/о +26.1 +2.4 21 +25 +25 комфорт 1015.8 1012.2
08 15.04 СВ 4 н/о н/о +23.2 +3.3 27 +23 +23 комфорт 1015.6 1012.0
10 15.04 В 3 н/о н/о +20.2 +3.2 32 +21 +21 комфорт 1016.2 1012.6
11 15.04 СВ 3 н/о н/о +22.5 -1.0 21 +22 +22 комфорт 1016.5 1012.9
13 15.04 В 2 н/о н/о +17.5 +5.2 44 +18 +18 1017.5 1013.9
14 15.04 штиль 0 н/о н/о +16.7 +7.0 53 +17 +17 1017.3 1013.7
16 15.04 СВ 1 н/о н/о +13.3 +7.3 67 +14 +14 1016.9 1013.3
17 15.04 СВ 3 н/о н/о +13.4 +4.2 54 +13 +13 1016.3 1012.7
19 15.04 СВ 2 н/о н/о +11.3 +5.9 69 +10 +10 1016.8 1013.2
20 15.04 СВ 2 н/о н/о +10.9 +6.4 74 +10 +10 1017.6 1014.0
22 15.04 штиль 0 н/о н/о +13.8 +6.3 61 +14 +14 1018.7 1015.1
23 15.04 СВ 2 30 км 3/0
[Ac cast]
+23.2 +1.9 25 +23 +23 комфорт 1019.1 1015.5 0.4
01 16.04 С 4 н/о н/о +30.6 +2.3 16 +28 +28 жарко 1018.2 1014.6
02 16.04 С 4 н/о н/о +32.4 +3.7 16 +30 +30 жарко 1017.6 1014.0
04 16.04 СЗ 5 н/о н/о +34.4 +4.9 16 +32 +32 жарко 1015.6 1012.0
05 16.04 С 5 н/о н/о +34.7 +4.5 15 +32 +32 жарко 1015.1 1011.5
07 16.04 С 4 н/о н/о +34.0 +5.1 16 +31 +31 жарко 1014.7 1011.1
08 16.04 С 3 н/о н/о +30.6 +9.7 27 +30 +30 жарко 1014.8 1011.2
10 16.04 штиль 0 н/о н/о +19.9 +11.4 58 +21 +21 комфорт 1015.8 1012.2
11 16.04 СВ 1 н/о н/о +18.0 +11.0 64 +20 +20 1015.9 1012.3
13 16.04 С 3 н/о н/о +22.8 +5.7 33 +23 +23 комфорт 1016.3 1012.7
14 16.04 С 4 н/о н/о +25.1 +4.2 26 +24 +24 комфорт 1016.1 1012.5 +35.6
16 16.04 С 3 н/о н/о +23.1 +4.4 30 +23 +23 комфорт 1015.9 1012.3
17 16.04 С 3 н/о н/о +23.2 +4.3 29 +23 +23 комфорт 1015.3 1011.7
19 16.04 С 4 н/о н/о +22.9 +4.1 29 +23 +23 комфорт 1015.6 1012.0
20 16.04 С 4 н/о н/о +23.5 +3.6 27 +23 +23 комфорт 1015.6 1012.0
22 16.04 С 4 н/о н/о +24.5 +4.1 27 +24 +24 комфорт 1016.8 1013.2
23 16.04 СЗ 3 30 км н/о +24.9 +3.8 25 +24 +24 комфорт 1018.4 1014.8
01 17.04 С 3 н/о н/о +26.7 +4.5 24 +26 +26 жарко 1018.4 1014.8
02 17.04 С 4 н/о н/о +30.7 +3.7 18 +28 +28 жарко 1018.1 1014.5 +17.4
04 17.04 С 4 н/о н/о +31.8 +2.4 15 +29 +29 жарко 1016.4 1012.8
05 17.04 СЗ 5 н/о н/о +31.9 +2.2 15 +29 +29 жарко 1016.4 1012.8
07 17.04 СЗ 4 н/о н/о +30.8 +2.4 16 +28 +28 жарко 1016.3 1012.7
08 17.04 СЗ 2 н/о н/о +28.8 +5.3 22 +27 +27 жарко 1016.5 1012.9
10 17.04 Ю 7 н/о н/о +21.9 +12.3 54 +24 +24 комфорт 1020.3 1016.7
11 17.04 Ю 8 н/о н/о +20.2 +13.6 66 +22 +22 комфорт 1021.4 1017.8
13 17.04 Ю 7 н/о н/о +17.6 +12.7 73 +17 +17 1023.2 1019.6
14 17.04 Ю 5 н/о н/о +16.8 +12.0 73 +16 +16 1023.4 1019.8 +32.6
16 17.04 Ю 3 н/о н/о +15.1 +9.9 71 +15 +15 1024.6 1020.9
17 17.04 Ю 3 н/о н/о +14.0 +9.5 74 +13 +13 1024.7 1021.0
19 17.04 Ю 3 н/о н/о +12.1 +8.7 80 +11 +11 1025.7 1022.0
20 17.04 Ю 3 н/о н/о +11.1 +8.2 82 +9 +9 1026.2 1022.5
22 17.04 Ю 3 н/о н/о +11.9 +8.0 77 +10 +10 1027.4 1023.7
23 17.04 ЮВ 4 30 км н/о +13.4 +7.2 66 +12 +12 1028.0 1024.3
01 18.04 В 6 н/о н/о +17.8 +0.3 31 +17 +17 1027.8 1024.1
02 18.04 Ю 4 н/о н/о +19.2 -0.5 26 +19 +19 1027.3 1023.6 +11.0
04 18.04 ЮВ 4 н/о н/о +21.8 -2.8 19 +21 +21 комфорт 1024.9 1021.2
05 18.04 Ю 3 н/о н/о +22.5 -3.9 17 +21 +21 комфорт 1024.5 1020.8
07 18.04 ЮВ 3 н/о н/о +22.9 -3.4 17 +21 +21 комфорт 1024.0 1020.4
08 18.04 ЮВ 2 н/о н/о +21.3 +1.8 27 +21 +21 комфорт 1024.0 1020.4
10 18.04 ЮВ 3 н/о н/о +16.1 +1.5 37 +16 +16 1025.3 1021.6
11 18.04 ЮВ 3 н/о н/о +13.0 +3.9 54 +12 +12 1025.4 1021.7
13 18.04 В 3 н/о н/о +12.0 +3.1 54 +11 +11 1025.9 1022.2
14 18.04 ЮВ 3 н/о н/о +11.1 +1.9 53 +10 +10 1025.5 1021.8 +23.4
16 18.04 ЮВ 3 н/о н/о +10.4 +1.2 53 +9 +9 1025.2 1021.5
17 18.04 ЮВ 3 н/о н/о +9.9 +1.1 54 +8 +8 1024.7 1021.0
19 18.04 В 2 н/о н/о +10.6 +0.2 49 +10 +10 1024.4 1020.7
20 18.04 В 2 н/о н/о +9.3 +1.2 57 +8 +8 1024.7 1021.0
22 18.04 В 3 н/о н/о +12.6 -0.4 41 +12 +12 1025.4 1021.7
23 18.04 В 5 н/о н/о +16.8 -1.2 29 +16 +16 1025.7 1022.0
01 19.04 СВ 5 н/о н/о +23.5 -1.1 19 +22 +22 комфорт 1024.8 1021.1
02 19.04 СВ 4 н/о н/о +25.9 +1.0 20 +24 +24 комфорт 1023.8 1020.2 +8.3
04 19.04 СВ 4 н/о н/о +28.8 +5.5 23 +28 +28 жарко 1021.2 1017.6
05 19.04 СВ 5 н/о н/о +29.3 +4.9 21 +28 +28 жарко 1020.6 1017.0
07 19.04 СВ 3 н/о н/о +30.0 +6.2 22 +29 +29 жарко 1020.1 1016.5

 

Местоположение метеостанции Локстон (Южная Австралия, Австралия): широта -34.43 долгота 140.60 высота над уровнем моря 30 м.

В архиве по умолчанию представлена погода в Локстоне за последнюю неделю. Архивные данные за месяц целиком и за предыдущие месяцы, начиная с января 2011 года, Вы можете получить, выбрав интересующий диапазон дат из раскрывающегося списка и нажав кнопку "Ввод!".


*Определитесь, кто Вы:
робот инопланетянин человек

Внимание! Время в таблицах - всемирное. Для получения местного времени необходимо прибавить поправку, которая равна 9.5 ч.

Смотрите также архив погоды в соседних городах и на ближайших метеорологических станциях:

Погода в Ренмарке (Южная Австралия, Австралия) (27 км)
Погода в Ламеру (Южная Австралия, Австралия) (106 км)
Погода в Милдьюре (Новый Южный Уэльс, Австралия) (138 км)
Погода в Мюррей Бридж (Южная Австралия, Австралия) (144 км)
Погода в Нереутпе (Южная Австралия, Австралия) (147 км)
Погода в Уолпеапе (Виктория, Австралия) (149 км)
Погода в Маунт Крофорд (Южная Австралия, Австралия) (157 км)
Погода в Розворти (Южная Австралия, Австралия) (176 км)
Погода в Стратолбине (Южная Австралия, Австралия) (182 км)
Погода в Эдинбурге (Южная Австралия, Австралия) (184 км)

Пояснения к столбцам:

Ветер - указаны скорость ветра в м/с - средняя за 10 мин, порывы в срок и между сроками (в фигурных скобках) и направление, откуда дует ветер: С - северный, СВ - северо-восточный, В - восточный, ЮВ - юго-восточный, Ю - южный, ЮЗ - юго-западный, З - западный, СЗ - северо-западный.
Видимость - горизонтальная дальность видимости в метрах или километрах. При видимости от 1 до 10 км при отсутствии осадков обычно наблюдается дымка, при ухудшении видимости до 1 км и менее - туман. В сухую погоду видимость может ухудшаться дымом, пылью или мглою.
Явления - указаны атмосферные явления, наблюдавшиеся в срок или в последний час перед сроком; фигурными скобками обозначены явления, наблюдавшиеся между сроками (за 1-3 часа до срока); квадратными скобками обозначены град или гололедные отложения с указанием их диаметра в мм.
Облачность - указаны через наклонную черту общая и нижняя облачность в баллах и высота нижней границы облаков в метрах; квадратными скобками обозначены формы облаков: Ci - перистые, Cs - перисто-слоистые, Cc - перисто-кучевые, Ac - высококучевые, As - высокослоистые, Sc - слоисто-кучевые, Ns - слоисто-дождевые, Cu - кучевые, Cb - кучево-дождевые. Подробнее классификацию облаков см. в Атласе облаков (PDF).
T - Температура воздуха - температура, измеренная на высоте 2 м над землей.
Td - Температура точки росы - температура, при понижении до которой содержащийся в воздухе водяной пар достигнет насыщения.
f - Относительная влажность воздуха - влажноcть воздуха, измеренная на высоте 2 м над землей.
Te - Эффективная температура - температура, которую ощущает одетый по сезону человек в тени. Характеристика душности погоды. При расчете учитывается влияние влажности воздуха и скорости ветра на теплоощущения человека.
Tes - Эффективная температура на солнце - температура, которую ощущает человек, с поправкой на солнечный нагрев. Характеристика знойности погоды. Зависит от высоты солнца над горизонтом, облачности и скорости ветра. Ночью, в пасмурную погоду, а также при ветре 12 м/с и более поправка равна нулю.
P - Атмосферное давление - приведенное к уровню моря атмосферное давление.
Po - Атмосферное давление - измеренное на уровне метеостанции атмосферное давление.
Tmin - Минимальная температура - минимум температуры воздуха на высоте 2 м над землей.
Tmax - Максимальная температура - максимум температуры воздуха на высоте 2 м над землей.
R - Количество осадков - Количество выпавших осадков за период времени, мм. При наведении курсора мыши на число - период времени, за который выпало указанное количество осадков.
R24 - Количество осадков - Количество выпавших осадков за 24 часа, мм.
S - Снежный покров - Высота снежного покрова, см. При наведении курсора мыши на число - состояние снежного покрова и степень покрытия местности в баллах.